Location: Saluda
(35.2377°N, 82.3468°W)
Time: 16:32:32
(UTC+00:00)

Explorer 11/Cluster Stage 4 - Pass Details

Date: 05 October 2022
Orbit: 466 x 1247 km, 28.8° (Epoch: 08 December)

Event Time Altitude Azimuth Distance (km) Brightness Sun altitude
Rises 13:11:37 0° 197° (SSW) 3,982 10.3 19.8°
Reaches altitude 10° 13:16:19 10° 171° (S) 3,135 10.2 20.7°
Maximum altitude 13:19:36 13° 147° (SSE) 2,959 10.6 21.3°
Drops below altitude 10° 13:22:56 10° 123° (ESE) 3,210 11.7 21.9°
Sets 13:27:51 0° 98° (E) 4,167 11.6 22.9°
